TimeIST,TemperatureF,Dew PointF,Humidity,Sea Level PressureIn,VisibilityMPH,Wind Direction,Wind SpeedMPH,Gust SpeedMPH,PrecipitationIn,Events,Conditions,WindDirDegrees,DateUTC
12:20 AM,59.0,48.2,67,30.06,6.2,Variable,2.3,-,N/A,,Overcast,0,2013-02-25 22:20:00
12:50 AM,57.2,48.2,72,30.06,6.2,Variable,1.2,-,N/A,,Mostly Cloudy,0,2013-02-25 22:50:00
1:20 AM,59.0,46.4,63,30.04,6.2,Variable,3.5,-,N/A,,Overcast,0,2013-02-25 23:20:00
1:50 AM,59.0,46.4,63,30.04,6.2,Variable,3.5,-,N/A,,Overcast,0,2013-02-25 23:50:00
2:00 AM,59,47,53,30.04,6,,3.5,,,,Overcast,,2013-02-26 00:00:00
2:20 AM,59.0,46.4,63,30.04,6.2,Variable,1.2,-,N/A,,Scattered Clouds,0,2013-02-26 00:20:00
2:50 AM,59.0,46.4,63,30.04,6.2,Variable,2.3,-,N/A,,Scattered Clouds,0,2013-02-26 00:50:00
3:20 AM,59.0,44.6,59,30.04,6.2,East,5.8,-,N/A,,Scattered Clouds,100,2013-02-26 01:20:00
3:50 AM,59.0,44.6,59,30.04,6.2,Variable,2.3,-,N/A,,Scattered Clouds,0,2013-02-26 01:50:00
4:20 AM,57.2,44.6,63,30.04,6.2,Variable,3.5,-,N/A,,Mostly Cloudy,0,2013-02-26 02:20:00
4:50 AM,55.4,44.6,67,30.04,6.2,Variable,1.2,-,N/A,,Mostly Cloudy,0,2013-02-26 02:50:00
5:20 AM,55.4,44.6,67,30.04,6.2,Variable,2.3,-,N/A,,Scattered Clouds,0,2013-02-26 03:20:00
5:50 AM,55.4,44.6,67,30.04,6.2,Variable,2.3,-,N/A,,Partly Cloudy,0,2013-02-26 03:50:00
6:20 AM,59.0,41.0,51,30.04,6.2,ESE,5.8,-,N/A,,Partly Cloudy,110,2013-02-26 04:20:00
6:50 AM,57.2,42.8,59,30.04,-9999.0,Variable,1.2,-,N/A,,Clear,0,2013-02-26 04:50:00
7:20 AM,59.0,44.6,59,30.06,-9999.0,Variable,1.2,-,N/A,,Clear,0,2013-02-26 05:20:00
7:50 AM,62.6,42.8,48,30.06,-9999.0,Variable,1.2,-,N/A,,Clear,0,2013-02-26 05:50:00
8:00 AM,62,45,43,30.07,6,,1.2,,,,,,2013-02-26 06:00:00
8:20 AM,66.2,39.2,37,30.06,-9999.0,Variable,1.2,-,N/A,,Clear,0,2013-02-26 06:20:00
8:50 AM,69.8,41.0,35,30.06,-9999.0,Variable,1.2,-,N/A,,Clear,0,2013-02-26 06:50:00
9:20 AM,71.6,42.8,35,30.06,-9999.0,Variable,3.5,-,N/A,,Clear,0,2013-02-26 07:20:00
9:50 AM,73.4,44.6,36,30.06,-9999.0,Variable,3.5,-,N/A,,Clear,0,2013-02-26 07:50:00
10:20 AM,77.0,41.0,28,30.06,-9999.0,Variable,3.5,-,N/A,,Clear,0,2013-02-26 08:20:00
10:50 AM,77.0,48.2,36,30.06,-9999.0,WNW,5.8,-,N/A,,Clear,290,2013-02-26 08:50:00
11:20 AM,75.2,39.2,27,30.04,-9999.0,WNW,6.9,-,N/A,,Clear,290,2013-02-26 09:20:00
11:50 AM,78.8,37.4,23,30.04,-9999.0,WNW,6.9,-,N/A,,Clear,300,2013-02-26 09:50:00
12:20 PM,78.8,41.0,26,30.04,-9999.0,WNW,8.1,-,N/A,,Clear,290,2013-02-26 10:20:00
12:50 PM,78.8,37.4,23,30.01,-9999.0,WNW,8.1,-,N/A,,Clear,300,2013-02-26 10:50:00
1:20 PM,80.6,35.6,20,30.01,-9999.0,WNW,6.9,-,N/A,,Clear,290,2013-02-26 11:20:00
1:50 PM,80.6,37.4,21,30.01,-9999.0,WNW,5.8,-,N/A,,Clear,290,2013-02-26 11:50:00
2:00 PM,81,37,12,30.01,6,West,5.8,,,,,280,2013-02-26 12:00:00
2:20 PM,82.4,37.4,20,30.01,-9999.0,WNW,4.6,-,N/A,,Clear,290,2013-02-26 12:20:00
2:50 PM,82.4,35.6,19,29.98,-9999.0,WNW,5.8,-,N/A,,Clear,290,2013-02-26 12:50:00
3:20 PM,80.6,37.4,21,29.98,-9999.0,WNW,6.9,-,N/A,,Clear,300,2013-02-26 13:20:00
3:50 PM,80.6,37.4,21,29.98,-9999.0,WNW,8.1,-,N/A,,Clear,290,2013-02-26 13:50:00
4:20 PM,80.6,37.4,21,29.98,-9999.0,NNW,6.9,-,N/A,,Clear,330,2013-02-26 14:20:00
4:50 PM,77.0,39.2,26,29.98,-9999.0,WNW,6.9,-,N/A,,Clear,290,2013-02-26 14:50:00
5:20 PM,75.2,42.8,31,29.98,-9999.0,WNW,8.1,-,N/A,,Clear,290,2013-02-26 15:20:00
5:50 PM,73.4,39.2,29,29.98,-9999.0,WNW,6.9,-,N/A,,Clear,300,2013-02-26 15:50:00
6:20 PM,71.6,39.2,31,29.98,-9999.0,Variable,2.3,-,N/A,,Clear,0,2013-02-26 16:20:00
6:50 PM,68.0,42.8,40,29.98,-9999.0,Variable,3.5,-,N/A,,Clear,0,2013-02-26 16:50:00
7:20 PM,68.0,44.6,43,30.01,-9999.0,Variable,1.2,-,N/A,,Clear,0,2013-02-26 17:20:00
7:50 PM,68.0,46.4,46,30.01,6.2,Variable,1.2,-,N/A,,Partly Cloudy,0,2013-02-26 17:50:00
8:00 PM,70,44,28,30.01,6,East,2.3,,,,,80,2013-02-26 18:00:00
8:20 PM,64.4,46.4,52,30.01,6.2,Variable,3.5,-,N/A,,Partly Cloudy,0,2013-02-26 18:20:00
8:50 PM,64.4,46.4,52,30.01,6.2,Variable,2.3,-,N/A,,Partly Cloudy,0,2013-02-26 18:50:00
9:20 PM,64.4,46.4,52,30.01,6.2,Variable,2.3,-,N/A,,Mostly Cloudy,0,2013-02-26 19:20:00
9:50 PM,64.4,48.2,56,30.01,6.2,Variable,3.5,-,N/A,,Mostly Cloudy,0,2013-02-26 19:50:00
10:20 PM,64.4,48.2,56,30.01,6.2,Variable,2.3,-,N/A,,Scattered Clouds,0,2013-02-26 20:20:00
10:50 PM,60.8,50.0,68,29.98,6.2,Variable,1.2,-,N/A,,Scattered Clouds,0,2013-02-26 20:50:00
11:20 PM,62.6,48.2,59,29.98,6.2,Variable,1.2,-,N/A,,Scattered Clouds,0,2013-02-26 21:20:00
11:50 PM,62.6,48.2,59,29.98,6.2,Variable,1.2,-,N/A,,Scattered Clouds,0,2013-02-26 21:50:00